Regional Weather Roundup
Issued by NWS Burlington, VT

Home | Current Version | Previous Version | Text Only | Print | Product List | Glossary On
Versions: 1 2 3 4 5 6 7 8 9 10 11 12 13 14 15 16 17 18 19 20 21 22 23 24 25 26 27 28 29 30 31 32 33 34 35 36 37 38 39 40 41 42 43 44 45 46 47 48 49 50
000
ASUS41 KBTV 190430
RWRBTV
VERMONT REGIONAL WEATHER ROUNDUP
NATIONAL WEATHER SERVICE BURLINGTON VT
1200 AM EDT FRI SEP 19 2014

NOTE: "FAIR" INDICATES FEW OR NO CLOUDS BELOW 12,000 FEET WITH NO
SIGNIFICANT WEATHER AND/OR OBSTRUCTIONS TO VISIBILITY.

* THESE REPORTS ARE NOT UNDER NWS QUALITY CONTROL AND/OR DO NOT
  REPORT WEATHER SUCH AS PRECIPITATION AND FOG.

VTZ001>019-190500-
_____VERMONT_____


CITY           SKY/WX    TMP DP  RH WIND       PRES   REMARKS
BURLINGTON     PTCLDY    43  33  68 N5        30.24R
MONTPELIER     PTCLDY    37  34  89 S3        30.24R
MORRISVILLE    MOCLDY    39  34  82 CALM      30.24R
ST. JOHNSBURY*   N/A     36  34  92 MISG      30.20R
MIDDLEBURY*    FAIR      38  38 100 CALM      30.22R FOG
RUTLAND*       CLEAR     37  36  93 CALM      30.20R
SPRINGFIELD    CLEAR     41  38  89 CALM      30.20R
HIGHGATE*      MOCLDY    40  33  75 N5        30.25R
NEWPORT*       CLOUDY    38  32  78 CALM      30.22S
BENNINGTON     PTCLDY    45  39  79 CALM      30.17R
MT. MANSFIELD*   N/A     30 N/A N/A N5          N/A

_____LAKE CHAMPLAIN_____


CITY           SKY/WX    TMP DP  RH WIND       PRES   REMARKS
BURTON ISLAND*   N/A     45  32  61 N2          N/A
COLCHESTER RF*   N/A     48  32  53 NE18        N/A
DIAMOND ISL*     N/A     48  34  57 N17         N/A

$$

NYZ007-026>031-035-052-083-190500-
_____NORTHERN NEW YORK_____


CITY           SKY/WX    TMP DP  RH WIND       PRES   REMARKS
PLATTSBURGH    CLEAR     40  32  73 NW8       30.24R
SARANAC LAKE   CLEAR     29  27  92 CALM      30.20R
MASSENA        CLEAR     37  32  82 CALM      30.29R
OGDENSBURG*    CLEAR     37  34  87 NE3       30.28R
POTSDAM*       PTCLDY    37  36  93 CALM      30.28R
WATERTOWN      CLEAR     38  31  76 E5        30.26R
FT DRUM        CLEAR     36  33  88 NE7       30.25R
ALBANY         MOCLDY    51  41  68 N6        30.19R
GLENS FALLS    CLOUDY    46  39  76 E6        30.20R

$$
NHZ002-005-011-190500-
_____NEW HAMPSHIRE_____


CITY           SKY/WX    TMP DP  RH WIND       PRES   REMARKS
LEBANON        CLEAR     37  33  85 CALM      30.18R
KEENE          CLEAR     45  34  65 CALM      30.19R
MT WASHINGTON  FOG       21  21 100 NW40        N/A  VSB 1/16WCI   1
PLYMOUTH       FAIR      37  37 100 CALM      30.18R
WHITEFIELD     CLEAR     33  30  88 CALM      30.19R

$$

_____REGIONAL QUEBEC LOCATIONS_____


CITY           SKY/WX    TMP DP  RH WIND       PRES   REMARKS
MONTREAL       MOCLDY    43  30  61 NW3       30.26R
QUEBEC CITY    CLEAR     36  28  75 NW7       30.21R
SHERBROOKE     CLEAR     32  30  93 W3        30.21R

_____REGIONAL ONTARIO LOCATIONS_____


CITY           SKY/WX    TMP DP  RH WIND       PRES   REMARKS
OTTAWA         CLEAR     39  30  70 N6        30.29R

______KEY______
VSB  - VISIBILITY IN MILES
WCI  - WIND CHILL INDEX
HX   - HEAT INDEX
$$



USA.gov is the U.S. government's official web portal to all federal, state and local government web resources and services.